DW6455 Orivesi FI current weather conditions

sailwx.info

Wind from 298 at 1 knots gusting 7

Air temperature 17.2° C
Dewpoint 5.8° C

Last reported at 2016-May-05 07:42 UTC.
Time now 2016-May-05 08:31 UTC

Location: N 61°39' E 024°21'.
View on Google Maps.

See reports from other nearby stations

  
Tides and Currents Weather Stations Pressure Air Temp Water Temp Dewpoint Dewpoint Depression Visibility Wind Speed Wind Dir Waves Ship Positions
date/time (UTC)wind fromknots sea level pressurealtimeterstation pressurevisibilityair tempwater tempwave heightnotes
2016-May-05 07:42 298 1 gusting 7 17.2
2016-May-05 07:37 305 2 gusting 8 16.7
2016-May-05 07:32 310 3 gusting 8 16.7
2016-May-05 07:27 336 3 gusting 8 16.7
2016-May-05 07:22 328 3 gusting 7 16.1
2016-May-05 07:17 331 2 gusting 7 16.1
2016-May-05 07:12 331 2 gusting 7 16.1
2016-May-05 07:07 342 3 gusting 7 15.6
2016-May-05 07:02 315 2 gusting 6 15.6
2016-May-05 06:57 308 2 gusting 6 15.6
2016-May-05 06:52 275 2 gusting 6 15.6
2016-May-05 06:47 346 1 gusting 6 15.6
2016-May-05 06:42 331 0 gusting 3 15.0
2016-May-05 06:37 306 0 gusting 4 15.0
2016-May-05 06:32 315 0 gusting 4 14.4
2016-May-05 06:27 311 0 gusting 4 14.4
2016-May-05 06:22 005 14.4
2016-May-05 06:17 14.4
2016-May-05 06:12 355 0 gusting 5 13.9
2016-May-05 06:07 315 13.9
2016-May-05 06:02 315 0 gusting 3 13.9
2016-May-05 05:57 315 0 gusting 3 13.9
2016-May-05 05:52 313 13.9
2016-May-05 05:47 313 0 gusting 3 14.4
2016-May-05 05:42 313 14.4
2016-May-05 05:37 313 14.4
2016-May-05 05:32 312 14.4
2016-May-05 05:27 313 13.9
2016-May-05 05:22 313 0 gusting 1 13.3
2016-May-05 05:17 313 0 gusting 1 13.3
2016-May-05 05:12 313 0 gusting 1 13.3
2016-May-05 05:07 313 0 gusting 1 13.3
2016-May-05 05:02 313 0 gusting 1 13.3
2016-May-05 04:57 313 12.8
2016-May-05 04:52 313 12.2
2016-May-05 04:47 313 11.1
2016-May-05 04:42 313 10.0
2016-May-05 04:37 313 9.4
2016-May-05 04:32 346 0 gusting 2 9.4
2016-May-05 04:27 346 0 gusting 2 9.4
2016-May-05 04:22 346 0 gusting 2 8.9
2016-May-05 04:17 346 0 gusting 2 8.9
2016-May-05 04:12 348 0 gusting 2 8.3
2016-May-05 04:07 348 0 gusting 2 8.3
2016-May-05 04:02 348 0 gusting 3 7.8
2016-May-05 03:57 348 0 gusting 3 7.8
2016-May-05 03:52 348 0 gusting 2 7.2
2016-May-05 03:47 349 0 gusting 2 7.2
2016-May-05 03:42 011 0 gusting 0 6.7
2016-May-05 03:37 016 6.7
2016-May-05 03:32 016 6.1
2016-May-05 03:27 015 5.6
2016-May-05 03:22 015 5.6
2016-May-05 03:17 016 5.0
2016-May-05 03:12 345 5.0
2016-May-05 03:07 346 5.0
2016-May-05 03:02 345 5.0
2016-May-05 02:57 345 0 gusting 1 4.4
2016-May-05 02:52 345 4.4
2016-May-05 02:47 345 4.4
2016-May-05 02:42 345 4.4
2016-May-05 02:37 345 4.4
2016-May-05 02:32 345 4.4
2016-May-05 02:27 345 4.4
2016-May-05 02:22 345 4.4
2016-May-05 02:17 345 4.4
2016-May-05 02:12 345 4.4
2016-May-05 02:07 345 4.4
2016-May-05 02:02 345 4.4
2016-May-05 01:57 345 4.4
2016-May-05 01:52 345 5.0
2016-May-05 01:47 345 5.0
2016-May-05 01:42 345 5.0
2016-May-05 01:37 345 5.0
2016-May-05 01:32 345 5.0
2016-May-05 01:27 345 5.0
2016-May-05 01:22 345 5.0
2016-May-05 01:17 345 5.0
2016-May-05 01:12 345 0 gusting 2 5.0
2016-May-05 01:07 345 0 gusting 2 5.0
2016-May-05 01:02 345 5.0
2016-May-05 00:57 345 0 gusting 2 5.6
2016-May-05 00:52 345 0 gusting 2 5.6
2016-May-05 00:47 345 1 gusting 3 5.6
2016-May-05 00:42 345 1 gusting 3 5.6
2016-May-05 00:37 345 1 gusting 3 5.6
2016-May-05 00:32 345 1 gusting 2 5.6
2016-May-05 00:27 345 1 gusting 2 5.6
2016-May-05 00:22 345 1 gusting 2 6.1
2016-May-05 00:17 345 1 gusting 2 6.1
2016-May-05 00:12 345 1 gusting 2 6.1
2016-May-05 00:07 345 0 gusting 3 6.1
2016-May-05 00:02 345 1 gusting 3 6.1
2016-May-04 23:57 345 1 gusting 3 6.1
2016-May-04 23:52 345 2 gusting 3 6.1
2016-May-04 23:47 343 1 gusting 3 6.7
2016-May-04 23:42 343 1 gusting 2 6.7
2016-May-04 23:37 343 1 gusting 2 6.7
2016-May-04 23:32 344 1 gusting 2 6.7
2016-May-04 23:27 343 1 gusting 2 6.7
2016-May-04 23:22 343 0 gusting 3 6.7
2016-May-04 23:17 341 1 gusting 4 6.7
2016-May-04 23:12 341 1 gusting 4 7.2
2016-May-04 23:07 339 2 gusting 5 7.2
2016-May-04 22:57 344 2 gusting 5 7.2
2016-May-04 22:52 341 1 gusting 4 7.2
2016-May-04 22:47 346 1 gusting 3 7.2
2016-May-04 22:42 355 1 gusting 3 7.8
2016-May-04 22:37 355 0 gusting 2 7.8
2016-May-04 22:32 355 1 gusting 2 7.8
2016-May-04 22:27 355 0 gusting 2 7.8
2016-May-04 22:22 355 0 gusting 2 7.8
2016-May-04 22:17 355 0 gusting 2 8.3
2016-May-04 22:12 355 0 gusting 2 8.3
2016-May-04 22:07 355 0 gusting 1 8.3
2016-May-04 22:02 355 0 gusting 2 8.3
2016-May-04 21:57 355 0 gusting 2 8.3
2016-May-04 21:52 355 0 gusting 2 8.3
2016-May-04 21:47 355 0 gusting 1 8.3
2016-May-04 21:42 355 0 gusting 1 8.3
2016-May-04 21:37 355 0 gusting 3 8.3
2016-May-04 21:32 355 0 gusting 2 8.9
2016-May-04 21:27 355 0 gusting 2 8.9
2016-May-04 21:22 346 0 gusting 2 8.9
2016-May-04 21:17 346 0 gusting 2 9.4
2016-May-04 21:12 346 9.4
2016-May-04 21:07 346 0 gusting 4 9.4
2016-May-04 21:02 346 0 gusting 4 9.4
2016-May-04 20:57 346 10.0
2016-May-04 20:52 346 10.0
2016-May-04 20:47 10.0
2016-May-04 20:42 342 0 gusting 3 10.6
2016-May-04 20:37 342 0 gusting 3 10.6
2016-May-04 20:32 342 1 gusting 5 10.6
2016-May-04 20:27 342 1 gusting 5 10.6
2016-May-04 20:22 321 1 gusting 5 11.1
2016-May-04 20:17 338 0 gusting 5 11.1
2016-May-04 20:12 340 0 gusting 5 11.1
2016-May-04 20:07 355 11.1
2016-May-04 20:02 346 0 gusting 3 11.7
2016-May-04 19:57 340 0 gusting 4 11.7
2016-May-04 19:52 355 0 gusting 5 12.2
2016-May-04 19:47 355 1 gusting 5 12.2
2016-May-04 19:42 340 1 gusting 6 12.8
2016-May-04 19:37 328 1 gusting 6 12.8
2016-May-04 19:32 330 1 gusting 6 12.8
2016-May-04 19:27 341 1 gusting 6 12.8
2016-May-04 19:22 337 1 gusting 6 13.3
2016-May-04 19:17 311 1 gusting 6 13.3
2016-May-04 19:12 333 1 gusting 6 13.3
2016-May-04 19:07 331 1 gusting 6 13.3
2016-May-04 19:02 320 1 gusting 6 13.3
2016-May-04 18:57 337 1 gusting 4 13.9
2016-May-04 18:52 289 1 gusting 6 13.9
2016-May-04 18:47 299 1 gusting 7 13.9
2016-May-04 18:42 336 1 gusting 7 13.9
2016-May-04 18:37 333 2 gusting 7 13.9
2016-May-04 18:32 300 1 gusting 4 13.9
2016-May-04 18:27 304 1 gusting 3 14.4
2016-May-04 18:22 304 1 gusting 3 15.0
2016-May-04 18:17 304 1 gusting 2 15.0
2016-May-04 18:12 302 1 gusting 3 15.6
2016-May-04 18:07 303 1 gusting 3 15.6
2016-May-04 18:02 302 1 gusting 3 16.1
2016-May-04 17:57 302 0 gusting 2 16.1
2016-May-04 17:52 302 0 gusting 2 16.7
2016-May-04 17:47 302 0 gusting 1 16.7
2016-May-04 17:42 304 16.7
2016-May-04 17:37 304 0 gusting 3 17.2
2016-May-04 17:32 304 0 gusting 3 17.2
2016-May-04 17:27 304 17.2
2016-May-04 17:22 313 17.8
2016-May-04 17:17 313 0 gusting 3 17.8
2016-May-04 17:12 313 0 gusting 6 17.8
2016-May-04 17:07 317 1 gusting 6 17.8
2016-May-04 17:02 317 1 gusting 6 18.3
2016-May-04 16:57 304 1 gusting 4 18.3
2016-May-04 16:52 298 0 gusting 5 18.3
2016-May-04 16:47 295 0 gusting 5 18.3
2016-May-04 16:42 302 0 gusting 5 18.3
2016-May-04 16:37 300 1 gusting 4 18.9
2016-May-04 16:32 325 1 gusting 4 18.9
2016-May-04 16:27 328 0 gusting 3 18.9
2016-May-04 16:22 280 0 gusting 2 18.9
2016-May-04 16:17 322 0 gusting 2 18.9
2016-May-04 16:12 248 18.9
2016-May-04 16:07 248 18.9
2016-May-04 16:02 241 0 gusting 3 18.9
2016-May-04 15:57 322 0 gusting 4 18.9
2016-May-04 15:52 291 1 gusting 4 18.9
2016-May-04 15:47 296 1 gusting 5 18.9
2016-May-04 15:42 248 1 gusting 5 18.9
2016-May-04 15:37 017 1 gusting 6 18.9
2016-May-04 15:32 348 1 gusting 6 18.9
2016-May-04 15:27 318 2 gusting 6 18.9
2016-May-04 15:22 349 2 gusting 6 18.9
2016-May-04 15:17 300 2 gusting 6 18.9
2016-May-04 15:12 198 1 gusting 6 18.9
2016-May-04 15:07 287 1 gusting 4 18.9
2016-May-04 15:02 249 0 gusting 6 18.9
2016-May-04 14:57 216 0 gusting 6 18.9
2016-May-04 14:52 267 0 gusting 6 18.9
2016-May-04 14:47 268 0 gusting 6 18.9
2016-May-04 14:42 298 1 gusting 6 18.9
2016-May-04 14:37 179 2 gusting 7 19.4
2016-May-04 14:32 198 3 gusting 7 19.4
2016-May-04 14:27 249 3 gusting 6 19.4
2016-May-04 14:22 188 2 gusting 11 19.4
2016-May-04 14:17 151 3 gusting 11 19.4
2016-May-04 14:12 193 3 gusting 11 19.4
2016-May-04 14:07 261 4 gusting 9 19.4
2016-May-04 14:02 182 4 gusting 8 18.9
2016-May-04 13:57 158 4 gusting 8 18.9
2016-May-04 13:52 171 4 gusting 7 18.9
2016-May-04 13:47 173 2 gusting 9 19.4
2016-May-04 13:42 161 3 gusting 9 19.4
2016-May-04 13:37 186 5 gusting 9 19.4
2016-May-04 13:32 134 5 gusting 8 19.4
2016-May-04 13:27 186 4 gusting 7 19.4
2016-May-04 13:22 135 4 gusting 7 19.4
2016-May-04 13:17 182 5 gusting 7 19.4
2016-May-04 13:12 175 4 gusting 7 18.9
2016-May-04 13:07 159 3 gusting 7 19.4
2016-May-04 13:02 155 4 gusting 8 18.9
2016-May-04 12:57 186 4 gusting 8 18.9
2016-May-04 12:52 190 4 gusting 9 18.9
2016-May-04 12:47 163 6 gusting 9 18.9
2016-May-04 12:42 199 5 gusting 10 18.9
2016-May-04 12:37 166 6 gusting 11 18.9
2016-May-04 12:32 142 7 gusting 9 18.9
2016-May-04 12:27 161 6 gusting 9 18.9
2016-May-04 12:22 159 4 gusting 8 18.9
2016-May-04 12:17 155 5 gusting 8 18.3
2016-May-04 12:12 149 6 gusting 8 18.3
2016-May-04 12:07 142 5 gusting 10 18.3
2016-May-04 12:02 167 6 gusting 10 18.3
2016-May-04 11:57 150 6 gusting 10 18.3
2016-May-04 11:52 158 6 gusting 10 18.9
2016-May-04 11:47 169 6 gusting 9 18.9
2016-May-04 11:42 165 6 gusting 9 18.9
2016-May-04 11:37 159 6 gusting 9 18.3
2016-May-04 11:32 155 6 gusting 9 18.3
2016-May-04 11:27 178 6 gusting 9 18.3
2016-May-04 11:22 166 5 gusting 8 18.3
2016-May-04 11:17 176 5 gusting 8 18.3
2016-May-04 11:12 180 5 gusting 8 18.3
2016-May-04 11:07 167 6 gusting 8 18.3
2016-May-04 11:02 169 6 gusting 9 18.3
2016-May-04 10:57 158 6 gusting 9 18.3
2016-May-04 10:52 159 6 gusting 9 18.3
2016-May-04 10:47 163 5 gusting 7 18.3
2016-May-04 10:42 153 3 gusting 8 18.3
2016-May-04 10:37 179 4 gusting 8 18.3
2016-May-04 10:32 176 4 gusting 7 17.8
2016-May-04 10:27 148 3 gusting 7 17.8
2016-May-04 10:22 169 3 gusting 7 17.8
2016-May-04 10:17 150 5 gusting 7 17.8
2016-May-04 10:12 146 6 gusting 7 17.8
2016-May-04 10:07 153 5 gusting 7 17.8
2016-May-04 10:02 156 5 gusting 6 17.8
2016-May-04 09:57 159 5 gusting 6 17.8
2016-May-04 09:52 165 5 gusting 6 17.8
2016-May-04 09:47 167 4 gusting 6 17.8
2016-May-04 09:42 163 4 gusting 6 17.8
2016-May-04 09:37 167 4 gusting 6 17.8
2016-May-04 09:32 171 4 gusting 6 17.2
2016-May-04 09:27 164 3 gusting 6 17.2
2016-May-04 09:22 162 4 gusting 6 17.2
2016-May-04 09:17 178 4 gusting 6 17.2
2016-May-04 09:12 182 4 gusting 6 17.2
2016-May-04 09:07 151 4 gusting 6 17.2
2016-May-04 09:02 154 4 gusting 5 17.2
2016-May-04 08:57 169 4 gusting 5 16.7
2016-May-04 08:52 170 3 gusting 5 17.2
2016-May-04 08:47 185 4 gusting 5 16.7
2016-May-04 08:42 161 3 gusting 6 16.7
2016-May-04 08:37 158 3 gusting 6 16.7
2016-May-04 08:32 148 3 gusting 5 16.7
2016-May-04 08:27 146 3 gusting 5 16.7
2016-May-04 08:22 159 2 gusting 5 16.1
2016-May-04 08:17 150 2 gusting 4 16.1
2016-May-04 08:12 193 2 gusting 4 16.1
2016-May-04 08:07 163 1 gusting 4 15.6
2016-May-04 08:02 161 1 gusting 3 15.6
2016-May-04 07:57 174 0 gusting 3 15.6
2016-May-04 07:52 174 0 gusting 4 15.6
2016-May-04 07:47 191 1 gusting 4 15.6
2016-May-04 07:37 136 1 gusting 2 15.0
2016-May-04 07:32 133 1 gusting 3 14.4
2016-May-04 07:27 133 1 gusting 3 14.4
2016-May-04 07:22 140 1 gusting 3 14.4
2016-May-04 07:17 142 1 gusting 3 14.4
2016-May-04 07:12 144 1 gusting 3 13.9
2016-May-04 07:07 148 1 gusting 3 13.9
2016-May-04 07:02 154 1 gusting 3 13.3
2016-May-04 06:57 156 1 gusting 3 13.3
2016-May-04 06:52 160 1 gusting 3 13.3
2016-May-04 06:47 136 1 gusting 2 13.3
2016-May-04 06:42 131 1 gusting 2 12.8
2016-May-04 06:37 145 1 gusting 2 12.8
2016-May-04 06:32 146 1 gusting 2 12.2
2016-May-04 06:27 147 1 gusting 2 12.2
2016-May-04 06:22 157 1 gusting 3 11.7
2016-May-04 06:17 157 1 gusting 4 11.7
2016-May-04 06:12 157 1 gusting 4 11.1
2016-May-04 06:07 161 1 gusting 3 11.1
2016-May-04 06:02 161 1 gusting 3 11.1
2016-May-04 05:57 160 0 gusting 3 11.1
2016-May-04 05:52 161 1 gusting 3 11.1
2016-May-04 05:47 161 1 gusting 3 11.1
2016-May-04 05:42 161 1 gusting 2 11.1
2016-May-04 05:37 139 0 gusting 2 11.7
2016-May-04 05:32 336 0 gusting 1 11.1
2016-May-04 05:27 336 10.6
2016-May-04 05:22 336 10.6
2016-May-04 05:17 336 10.0
2016-May-04 05:12 336 9.4
2016-May-04 05:07 336 9.4
2016-May-04 05:02 336 8.9
2016-May-04 04:57 336 8.3
2016-May-04 04:52 336 7.2
2016-May-04 04:47 336 6.7
2016-May-04 04:42 336 6.1
2016-May-04 04:37 336 5.6
2016-May-04 04:32 336 5.0
2016-May-04 04:27 336 5.0
2016-May-04 04:22 336 4.4
2016-May-04 04:17 336 4.4
2016-May-04 04:12 336 3.9
2016-May-04 04:07 336 3.3
2016-May-04 04:02 336 2.8
2016-May-04 03:57 336 2.2
2016-May-04 03:52 336 2.2
2016-May-04 03:47 336 1.7
2016-May-04 03:42 336 1.7
2016-May-04 03:37 336 1.1
2016-May-04 03:32 336 0 gusting 1 1.1
2016-May-04 03:27 336 0 gusting 1 0.6
2016-May-04 03:22 336 0 gusting 2 0.6
2016-May-04 03:17 336 1 gusting 2 0.6
2016-May-04 03:12 336 1 gusting 2 0.6
2016-May-04 03:07 336 1 gusting 2 0.6
2016-May-04 03:02 336 1 gusting 1 0.6
2016-May-04 02:57 336 0 gusting 1 0.6
2016-May-04 02:52 336 0 gusting 1 0.6
2016-May-04 02:47 336 0 gusting 1 0.6
2016-May-04 02:42 336 0.6
2016-May-04 02:37 336 0.6
2016-May-04 02:32 336 0.6
2016-May-04 02:27 336 0.6
2016-May-04 02:22 336 0.6
2016-May-04 02:17 336 0.6
2016-May-04 02:12 336 0.6
2016-May-04 02:07 336 0.6
2016-May-04 02:02 336 0 gusting 2 0.6
2016-May-04 01:57 336 1 gusting 2 0.6
2016-May-04 01:52 336 1 gusting 2 1.1
2016-May-04 01:47 336 0 gusting 2 1.1
2016-May-04 01:42 336 1 gusting 2 1.1
2016-May-04 01:37 336 1 gusting 2 1.1
2016-May-04 01:32 336 1 gusting 2 1.7
2016-May-04 01:27 336 1 gusting 2 1.7
2016-May-04 01:22 336 1 gusting 2 1.7
2016-May-04 01:17 336 1 gusting 2 1.7
2016-May-04 01:12 336 0 gusting 1 2.2
2016-May-04 01:07 336 0 gusting 1 2.2
2016-May-04 01:02 336 0 gusting 1 2.2
2016-May-04 00:57 336 0 gusting 1 2.8
2016-May-04 00:52 336 0 gusting 1 2.8
2016-May-04 00:47 336 0 gusting 1 2.8
2016-May-04 00:42 336 0 gusting 2 2.2
2016-May-04 00:37 336 0 gusting 2 2.2
2016-May-04 00:32 336 0 gusting 1 2.2
2016-May-04 00:27 336 0 gusting 1 2.2
2016-May-04 00:22 336 0 gusting 1 2.8
2016-May-04 00:17 336 0 gusting 1 2.8
2016-May-04 00:12 336 0 gusting 1 2.8
2016-May-04 00:07 336 0 gusting 1 2.8
2016-May-04 00:02 336 0 gusting 1 2.8
2016-May-03 23:57 336 0 gusting 1 2.8
2016-May-03 23:52 336 2.8
2016-May-03 23:47 336 2.8
2016-May-03 23:42 336 0 gusting 2 2.8
2016-May-03 23:37 336 1 gusting 2 2.8
2016-May-03 23:32 336 1 gusting 2 2.8
2016-May-03 23:27 336 1 gusting 2 2.8
2016-May-03 23:22 266 1 gusting 2 2.8
2016-May-03 23:17 266 1 gusting 2 2.8
2016-May-03 23:12 266 0 gusting 1 2.8
2016-May-03 23:07 206 2.8
2016-May-03 23:02 206 3.3
2016-May-03 22:57 206 3.3
2016-May-03 22:52 206 3.3
2016-May-03 22:47 206 3.3
2016-May-03 22:42 205 0 gusting 3 3.3
2016-May-03 22:37 206 0 gusting 3 3.3
2016-May-03 22:32 161 3.3
2016-May-03 22:27 162 3.3
2016-May-03 22:22 162 3.3
2016-May-03 22:17 162 0 gusting 3 3.3
2016-May-03 22:12 162 0 gusting 3 3.3
2016-May-03 22:07 162 0 gusting 3 3.9
2016-May-03 22:02 162 3.9
2016-May-03 21:57 161 3.9
2016-May-03 21:52 161 3.9
2016-May-03 21:47 161 4.4
2016-May-03 21:42 161 4.4
2016-May-03 21:37 161 4.4
2016-May-03 21:27 161 5.0
2016-May-03 21:22 161 5.0
2016-May-03 21:17 161 5.6
2016-May-03 21:12 161 5.6
2016-May-03 21:07 161 5.0
2016-May-03 21:02 161 5.6
2016-May-03 20:57 161 5.6
2016-May-03 20:52 161 5.6
2016-May-03 20:47 162 5.6
2016-May-03 20:42 161 5.6
2016-May-03 20:37 161 6.1
2016-May-03 20:32 161 6.1
2016-May-03 20:27 161 6.1
2016-May-03 20:22 161 6.7
2016-May-03 20:17 161 6.7
2016-May-03 20:12 161 6.7
2016-May-03 20:07 161 6.7
2016-May-03 20:02 161 7.2
2016-May-03 19:57 161 7.2
2016-May-03 19:52 161 7.2
2016-May-03 19:47 161 7.2
2016-May-03 19:42 161 7.8
2016-May-03 19:37 161 7.8
2016-May-03 19:32 161 7.8
2016-May-03 19:27 161 8.3
2016-May-03 19:22 161 8.3
2016-May-03 19:17 161 8.3
2016-May-03 19:12 162 8.9
2016-May-03 19:07 162 9.4
2016-May-03 19:02 161 9.4
2016-May-03 18:57 161 10.0
2016-May-03 18:52 161 10.0
2016-May-03 18:47 161 10.6
2016-May-03 18:42 161 11.1
2016-May-03 18:37 162 11.1
2016-May-03 18:32 161 11.7
2016-May-03 18:27 161 12.2
2016-May-03 18:22 162 12.8
2016-May-03 18:17 161 12.8
2016-May-03 18:12 161 13.3
2016-May-03 18:07 161 13.3
2016-May-03 18:02 161 13.9
2016-May-03 17:57 161 0 gusting 1 14.4
2016-May-03 17:52 161 0 gusting 3 14.4
2016-May-03 17:47 161 0 gusting 3 14.4
2016-May-03 17:42 161 0 gusting 4 14.4
2016-May-03 17:37 161 1 gusting 5 14.4
2016-May-03 17:32 162 1 gusting 5 14.4
2016-May-03 17:27 173 1 gusting 5 15.0
2016-May-03 17:22 186 1 gusting 5 15.0
2016-May-03 17:17 163 1 gusting 5 15.0
2016-May-03 17:12 172 1 gusting 5 15.0
2016-May-03 17:07 178 1 gusting 5 15.6
2016-May-03 17:02 157 2 gusting 6 15.6
2016-May-03 16:57 148 3 gusting 6 15.6
2016-May-03 16:52 169 3 gusting 6 15.6
2016-May-03 16:47 170 2 gusting 6 15.6
2016-May-03 16:42 165 2 gusting 6 16.1
2016-May-03 16:37 182 3 gusting 6 16.1
2016-May-03 16:32 157 3 gusting 6 16.1
2016-May-03 16:27 167 3 gusting 6 16.1
2016-May-03 16:22 163 2 gusting 6 16.1
2016-May-03 16:17 164 2 gusting 6 16.7
2016-May-03 16:12 172 2 gusting 6 16.1
2016-May-03 16:07 151 3 gusting 4 16.1
2016-May-03 16:02 151 3 gusting 4 16.1
2016-May-03 15:57 151 3 gusting 6 16.1
2016-May-03 15:52 151 3 gusting 6 16.1
2016-May-03 15:47 150 3 gusting 6 16.1
2016-May-03 15:42 151 2 gusting 5 16.1
2016-May-03 15:37 149 2 gusting 4 16.1
2016-May-03 15:32 149 2 gusting 6 16.7
2016-May-03 15:27 173 3 gusting 6 16.7
2016-May-03 15:22 138 3 gusting 6 16.7
2016-May-03 15:17 140 3 gusting 6 16.7
2016-May-03 15:12 139 3 gusting 6 16.7
2016-May-03 15:07 186 3 gusting 6 16.7
2016-May-03 15:02 169 2 gusting 4 16.7
2016-May-03 14:57 146 2 gusting 5 16.7
2016-May-03 14:52 140 3 gusting 6 16.7
2016-May-03 14:47 138 4 gusting 6 16.7
2016-May-03 14:42 134 4 gusting 6 16.7
2016-May-03 14:37 145 4 gusting 6 16.7
2016-May-03 14:32 136 3 gusting 6 16.7
2016-May-03 14:27 122 3 gusting 6 16.7
2016-May-03 14:22 132 4 gusting 6 16.7
2016-May-03 14:17 146 3 gusting 5 17.2
2016-May-03 14:12 155 1 gusting 5 16.7
2016-May-03 14:07 172 1 gusting 5 16.7
2016-May-03 14:02 119 2 gusting 5 16.7
2016-May-03 13:57 149 2 gusting 6 16.7
2016-May-03 13:52 154 3 gusting 6 16.7
2016-May-03 13:47 129 3 gusting 6 16.7
2016-May-03 13:42 132 3 gusting 6 17.2
2016-May-03 13:37 171 4 gusting 6 16.7
2016-May-03 13:32 138 4 gusting 6 16.7
2016-May-03 13:27 142 4 gusting 6 17.2
2016-May-03 13:22 128 4 gusting 9 17.2
2016-May-03 13:17 163 4 gusting 9 17.2
2016-May-03 13:12 147 5 gusting 9 17.2
2016-May-03 13:07 167 6 gusting 9 17.2
2016-May-03 13:02 158 5 gusting 9 16.7
2016-May-03 12:57 155 3 gusting 8 16.7
2016-May-03 12:52 178 4 gusting 10 16.7
2016-May-03 12:47 152 6 gusting 10 16.7
2016-May-03 12:42 150 6 gusting 10 16.7
2016-May-03 12:37 169 5 gusting 9 16.7
2016-May-03 12:32 132 6 gusting 10 16.7
2016-May-03 12:27 173 6 gusting 10 16.7
2016-May-03 12:22 161 6 gusting 9 16.7
2016-May-03 12:17 166 5 gusting 9 16.7
2016-May-03 12:12 150 4 gusting 10 16.7
2016-May-03 12:07 165 6 gusting 10 16.7
2016-May-03 12:02 168 6 gusting 9 16.7
2016-May-03 11:57 162 6 gusting 9 16.7
2016-May-03 11:52 139 6 gusting 8 16.7
2016-May-03 11:47 152 5 gusting 10 16.7
2016-May-03 11:42 155 6 gusting 10 16.7
2016-May-03 11:37 159 6 gusting 10 16.7
2016-May-03 11:32 161 5 gusting 9 16.7
2016-May-03 11:27 157 5 gusting 9 16.7
2016-May-03 11:22 134 4 gusting 9 16.7
2016-May-03 11:17 202 4 gusting 9 16.7
2016-May-03 11:12 190 4 gusting 8 16.7
2016-May-03 11:07 179 5 gusting 8 16.7
2016-May-03 11:02 136 5 gusting 9 16.7
2016-May-03 10:57 144 4 gusting 9 16.7
2016-May-03 10:52 178 4 gusting 8 16.7
2016-May-03 10:47 188 5 gusting 9 16.7
2016-May-03 10:42 124 5 gusting 9 16.7
2016-May-03 10:37 138 5 gusting 9 16.7
2016-May-03 10:32 135 5 gusting 6 16.7
2016-May-03 10:27 158 4 gusting 6 16.7
2016-May-03 10:22 161 3 gusting 6 16.7
2016-May-03 10:17 152 3 gusting 6 16.7
2016-May-03 10:12 161 3 gusting 6 16.7
2016-May-03 10:07 209 4 gusting 6 16.1
2016-May-03 10:02 155 3 gusting 6 16.1
2016-May-03 09:57 150 3 gusting 7 16.1
2016-May-03 09:52 178 3 gusting 7 16.1
2016-May-03 09:47 139 3 gusting 7 16.1
2016-May-03 09:42 171 4 gusting 7 16.1
2016-May-03 09:37 202 3 gusting 7 16.1
2016-May-03 09:32 206 4 gusting 7 16.1
2016-May-03 09:27 147 4 gusting 7 16.1
2016-May-03 09:22 203 3 gusting 8 16.1
2016-May-03 09:17 163 4 gusting 9 16.1
2016-May-03 09:12 180 3 gusting 9 16.1
2016-May-03 09:07 165 4 gusting 10 16.1
2016-May-03 09:02 196 6 gusting 10 15.6
2016-May-03 08:57 212 5 gusting 10 15.6
2016-May-03 08:52 185 3 gusting 8 16.1
2016-May-03 08:47 156 3 gusting 8 15.6
2016-May-03 08:42 237 4 gusting 8 15.6
2016-May-03 08:37 184 3 gusting 7 15.6
2016-May-03 08:32 184 3 gusting 7 15.6
2016-May-03 08:27 182 4 gusting 7 15.6
2016-May-03 08:22 214 4 gusting 7 15.6
2016-May-03 08:17 204 4 gusting 8 15.0
2016-May-03 08:12 215 4 gusting 8 15.0
2016-May-03 08:07 195 4 gusting 8 15.0
2016-May-03 08:02 180 3 gusting 9 15.0